Location: Goettingen
(51.5300°N, 9.9433°E)
Time: 08:16:40
(UTC+01:00)

ISS - Pass Details

Date: 13 December 2018
Orbit: 401 x 408 km, 51.6° (Epoch: 12 December)

Event Time Altitude Azimuth Distance (km) Brightness Sun altitude
Rises 18:03:58 0° 277° (W) 2,319 1.3 -16.4°
Reaches altitude 10° 18:07:33 10° 235° (SW) 1,452 0.1 -16.9°
Maximum altitude 18:08:14 11° 223° (SW) 1,421 -0.2 -17.0°
Drops below altitude 10° 18:08:56 10° 211° (SSW) 1,450 -0.4 -17.1°
Sets 18:12:30 0° 169° (S) 2,301 0.1 -17.6°
